When you browse on this site, cookies collect data to enhance your experience and personalize the content and advertising you see.
Visit our Privacy Policy to learn more. By continuing to use the site, you agree to this use of cookies and data.
  • In France
  • List of Countries
  • For 7 days
  • Water Temperature
  • Weather Map
  • Weather Widgets
  • user-avatar
    Login

    Hourly Weather Takeo

    Today, 4 April, Saturday

    Time Temperature Precipitation Wind Pressure Humidity
    00:00 +29°C° 0 mm 3 mps 757 mmHg 68%
    01:00 +28°C° 0 mm 2 mps 757 mmHg 72%
    02:00 +28°C° 0 mm 2 mps 757 mmHg 75%
    03:00 +27°C° 0 mm 2 mps 757 mmHg 77%
    04:00 +27°C° 0 mm 1 mps 756 mmHg 80%
    05:00 +28°C° 0 mm 1 mps 757 mmHg 79%
    06:00 +28°C° 0 mm 1 mps 757 mmHg 78%
    07:00 +29°C° 0 mm 1 mps 758 mmHg 76%
    08:00 +30°C° 0 mm 2 mps 758 mmHg 69%
    09:00 +32°C° 0 mm 2 mps 758 mmHg 63%
    10:00 +34°C° 0 mm 3 mps 758 mmHg 56%
    11:00 +35°C° 0 mm 3 mps 757 mmHg 52%
    12:00 +36°C° 0 mm 2 mps 757 mmHg 49%
    13:00 +37°C° 0 mm 2 mps 756 mmHg 48%
    14:00 +37°C° 0 mm 2 mps 756 mmHg 45%
    15:00 +38°C° 0 mm 2 mps 755 mmHg 42%
    16:00 +37°C° 0 mm 1 mps 754 mmHg 39%
    17:00 +37°C° 0.2 mm 2 mps 755 mmHg 43%
    18:00 +36°C° 0.2 mm 2 mps 755 mmHg 46%
    19:00 +35°C° 0 mm 2 mps 756 mmHg 50%
    20:00 +34°C° 0.1 mm 3 mps 756 mmHg 52%
    21:00 +33°C° 0.1 mm 4 mps 757 mmHg 55%
    22:00 +32°C° 0.1 mm 6 mps 758 mmHg 57%
    23:00 +30°C° 0 mm 5 mps 758 mmHg 64%

    Tomorrow, 5 April, Sunday

    Time Temperature Precipitation Wind Pressure Humidity
    00:00 +29°C° 0 mm 4 mps 757 mmHg 71%
    01:00 +28°C° 0 mm 3 mps 757 mmHg 78%
    02:00 +28°C° 0 mm 2 mps 757 mmHg 80%
    03:00 +27°C° 0 mm 2 mps 757 mmHg 82%
    04:00 +27°C° 0 mm 2 mps 757 mmHg 84%
    05:00 +27°C° 0 mm 2 mps 757 mmHg 81%
    06:00 +28°C° 0 mm 2 mps 757 mmHg 78%
    07:00 +28°C° 0 mm 2 mps 758 mmHg 75%
    08:00 +31°C° 0 mm 2 mps 758 mmHg 64%
    09:00 +34°C° 0 mm 3 mps 758 mmHg 54%
    10:00 +36°C° 0 mm 4 mps 758 mmHg 44%
    11:00 +38°C° 0 mm 4 mps 757 mmHg 38%
    12:00 +41°C° 0 mm 4 mps 756 mmHg 33%
    13:00 +42°C° 0 mm 4 mps 755 mmHg 27%
    14:00 +43°C° 0 mm 4 mps 755 mmHg 25%
    15:00 +43°C° 0 mm 4 mps 754 mmHg 23%
    16:00 +44°C° 0 mm 3 mps 754 mmHg 22%
    17:00 +41°C° 0 mm 4 mps 754 mmHg 29%
    18:00 +38°C° 0 mm 4 mps 755 mmHg 36%
    19:00 +35°C° 0 mm 5 mps 755 mmHg 43%
    20:00 +34°C° 0 mm 4 mps 756 mmHg 52%
    21:00 +33°C° 0 mm 4 mps 757 mmHg 60%
    22:00 +30°C° 0 mm 4 mps 758 mmHg 69%
    23:00 +30°C° 0 mm 3 mps 758 mmHg 70%

    Day after tomorrow, 6 April, Monday

    Time Temperature Precipitation Wind Pressure Humidity
    00:00 +30°C° 0 mm 3 mps 758 mmHg 72%
    01:00 +29°C° 0 mm 3 mps 758 mmHg 73%
    02:00 +29°C° 0 mm 2 mps 757 mmHg 75%
    03:00 +29°C° 0 mm 2 mps 757 mmHg 77%
    04:00 +28°C° 0 mm 1 mps 756 mmHg 79%
    05:00 +29°C° 0 mm 1 mps 757 mmHg 77%
    06:00 +29°C° 0 mm 1 mps 757 mmHg 75%
    07:00 +29°C° 0 mm 1 mps 758 mmHg 73%
    08:00 +31°C° 0 mm 2 mps 758 mmHg 65%
    09:00 +34°C° 0 mm 3 mps 758 mmHg 57%
    10:00 +36°C° 0 mm 4 mps 758 mmHg 49%
    11:00 +37°C° 0 mm 3 mps 757 mmHg 44%
    12:00 +38°C° 0 mm 3 mps 757 mmHg 40%
    13:00 +39°C° 0 mm 3 mps 756 mmHg 35%
    14:00 +39°C° 0 mm 3 mps 755 mmHg 35%
    15:00 +39°C° 0 mm 3 mps 754 mmHg 34%
    16:00 +39°C° 0 mm 3 mps 753 mmHg 34%
    17:00 +38°C° 0 mm 3 mps 754 mmHg 39%
    18:00 +36°C° 0 mm 4 mps 754 mmHg 44%
    19:00 +35°C° 0 mm 4 mps 755 mmHg 49%
    20:00 +34°C° 0 mm 4 mps 756 mmHg 53%
    21:00 +33°C° 0 mm 3 mps 756 mmHg 58%
    22:00 +31°C° 0 mm 3 mps 757 mmHg 63%
    23:00 +30°C° 0 mm 3 mps 757 mmHg 65%

    7 April, Tuesday

    Time Temperature Precipitation Wind Pressure Humidity
    00:00 +30°C° 0 mm 4 mps 757 mmHg 68%
    01:00 +29°C° 0 mm 4 mps 757 mmHg 71%
    02:00 +29°C° 0 mm 3 mps 757 mmHg 72%
    03:00 +29°C° 0 mm 3 mps 756 mmHg 74%
    04:00 +28°C° 0 mm 3 mps 756 mmHg 75%
    05:00 +29°C° 0 mm 3 mps 756 mmHg 74%
    06:00 +29°C° 0 mm 3 mps 757 mmHg 73%
    07:00 +29°C° 0 mm 2 mps 757 mmHg 72%
    08:00 +31°C° 0 mm 2 mps 758 mmHg 63%
    09:00 +34°C° 0 mm 2 mps 758 mmHg 54%
    10:00 +36°C° 0 mm 2 mps 758 mmHg 45%
    11:00 +37°C° 0 mm 2 mps 757 mmHg 40%
    12:00 +39°C° 0 mm 2 mps 756 mmHg 35%
    13:00 +40°C° 0 mm 2 mps 755 mmHg 30%
    14:00 +40°C° 0 mm 3 mps 755 mmHg 31%
    15:00 +41°C° 0 mm 4 mps 754 mmHg 31%
    16:00 +40°C° 0 mm 5 mps 753 mmHg 31%
    17:00 +37°C° 0 mm 4 mps 754 mmHg 38%
    18:00 +36°C° 0 mm 4 mps 754 mmHg 44%
    19:00 +34°C° 0 mm 4 mps 754 mmHg 51%
    20:00 +33°C° 0 mm 3 mps 755 mmHg 56%
    21:00 +31°C° 0 mm 3 mps 756 mmHg 60%
    22:00 +30°C° 0 mm 3 mps 756 mmHg 65%
    23:00 +30°C° 0 mm 3 mps 756 mmHg 68%

    8 April, Wednesday

    Time Temperature Precipitation Wind Pressure Humidity
    00:00 +30°C° 0 mm 3 mps 756 mmHg 70%
    01:00 +29°C° 0 mm 3 mps 756 mmHg 73%
    02:00 +29°C° 0.3 mm 3 mps 756 mmHg 75%
    03:00 +29°C° 0.3 mm 3 mps 756 mmHg 77%
    04:00 +28°C° 0.3 mm 3 mps 755 mmHg 79%
    05:00 +29°C° 0.3 mm 3 mps 756 mmHg 78%
    06:00 +29°C° 0.3 mm 3 mps 756 mmHg 77%
    07:00 +29°C° 0.3 mm 3 mps 757 mmHg 77%
    08:00 +31°C° 0 mm 3 mps 757 mmHg 68%
    09:00 +34°C° 0 mm 3 mps 757 mmHg 59%
    10:00 +36°C° 0 mm 3 mps 757 mmHg 50%
    11:00 +37°C° 0 mm 3 mps 757 mmHg 45%
    12:00 +38°C° 0 mm 2 mps 756 mmHg 40%
    13:00 +40°C° 0 mm 2 mps 755 mmHg 36%
    14:00 +39°C° 0 mm 2 mps 755 mmHg 37%
    15:00 +39°C° 0 mm 3 mps 754 mmHg 38%
    16:00 +39°C° 0 mm 3 mps 754 mmHg 38%
    17:00 +37°C° 1.1 mm 3 mps 754 mmHg 46%
    18:00 +35°C° 1.1 mm 3 mps 755 mmHg 53%
    19:00 +33°C° 1.1 mm 3 mps 755 mmHg 60%
    20:00 +33°C° 1.9 mm 3 mps 756 mmHg 62%
    21:00 +32°C° 1.9 mm 4 mps 757 mmHg 65%
    22:00 +32°C° 1.9 mm 4 mps 757 mmHg 67%
    23:00 +30°C° 0.3 mm 4 mps 757 mmHg 69%

    9 April, Thursday

    Time Temperature Precipitation Wind Pressure Humidity
    00:00 +30°C° 0.3 mm 4 mps 757 mmHg 72%
    01:00 +29°C° 0.3 mm 4 mps 757 mmHg 74%
    02:00 +29°C° 0.4 mm 4 mps 756 mmHg 75%
    03:00 +29°C° 0.4 mm 4 mps 756 mmHg 77%
    04:00 +28°C° 0.4 mm 4 mps 756 mmHg 78%
    05:00 +28°C° 0.1 mm 3 mps 757 mmHg 77%
    06:00 +29°C° 0.1 mm 3 mps 757 mmHg 76%
    07:00 +29°C° 0.1 mm 2 mps 758 mmHg 75%
    08:00 +30°C° 0 mm 3 mps 758 mmHg 68%
    09:00 +31°C° 0 mm 3 mps 758 mmHg 62%
    10:00 +33°C° 0 mm 3 mps 758 mmHg 55%
    11:00 +34°C° 0 mm 3 mps 758 mmHg 52%
    12:00 +35°C° 0 mm 3 mps 757 mmHg 49%
    13:00 +36°C° 0 mm 2 mps 756 mmHg 46%
    14:00 +35°C° 0.3 mm 2 mps 756 mmHg 47%
    15:00 +35°C° 0.3 mm 2 mps 755 mmHg 48%
    16:00 +35°C° 0.3 mm 2 mps 755 mmHg 48%
    17:00 +34°C° 0.4 mm 3 mps 755 mmHg 52%
    18:00 +33°C° 0.4 mm 3 mps 755 mmHg 56%
    19:00 +31°C° 0.4 mm 3 mps 756 mmHg 59%
    20:00 +31°C° 0 mm 3 mps 756 mmHg 62%
    21:00 +30°C° 0 mm 3 mps 757 mmHg 65%
    22:00 +30°C° 0 mm 3 mps 758 mmHg 68%
    23:00 +30°C° 0 mm 3 mps 758 mmHg 70%
    Show more